• In Hungary
  • List of Countries
  • For 7 days
  • Water Temperature
  • Satellite Maps
  • Weather Map
  • News
  • Weather Widgets
  • user-avatar
    Login

    Hourly Weather Amman

    Today, 17 July, Tuesday

    Time Temperature Precipitation Wind Pressure Humidity
    00:00 +26°C° 0 mm 3 mps 687 mmHg 50%
    01:00 +26°C° 0 mm 2 mps 687 mmHg 52%
    02:00 +25°C° 0 mm 2 mps 687 mmHg 53%
    03:00 +25°C° 0 mm 2 mps 687 mmHg 54%
    04:00 +24°C° 0 mm 2 mps 687 mmHg 56%
    05:00 +24°C° 0 mm 2 mps 687 mmHg 58%
    06:00 +25°C° 0 mm 2 mps 688 mmHg 53%
    07:00 +26°C° 0 mm 3 mps 688 mmHg 47%
    08:00 +27°C° 0 mm 3 mps 688 mmHg 42%
    09:00 +29°C° 0 mm 3 mps 688 mmHg 37%
    10:00 +30°C° 0 mm 4 mps 688 mmHg 33%
    11:00 +33°C° 0 mm 4 mps 688 mmHg 29%
    12:00 +34°C° 0 mm 5 mps 688 mmHg 27%
    13:00 +34°C° 0 mm 5 mps 688 mmHg 26%
    14:00 +35°C° 0 mm 6 mps 688 mmHg 24%
    15:00 +34°C° 0 mm 6 mps 688 mmHg 26%
    16:00 +34°C° 0 mm 6 mps 688 mmHg 28%
    17:00 +33°C° 0 mm 7 mps 687 mmHg 29%
    18:00 +32°C° 0 mm 6 mps 687 mmHg 32%
    19:00 +30°C° 0 mm 5 mps 687 mmHg 34%
    20:00 +29°C° 0 mm 4 mps 687 mmHg 36%
    21:00 +28°C° 0 mm 3 mps 687 mmHg 38%
    22:00 +27°C° 0 mm 3 mps 687 mmHg 40%
    23:00 +27°C° 0 mm 2 mps 687 mmHg 43%

    Tomorrow, 18 July, Wednesday

    Time Temperature Precipitation Wind Pressure Humidity
    00:00 +26°C° 0 mm 2 mps 687 mmHg 44%
    01:00 +25°C° 0 mm 2 mps 687 mmHg 45%
    02:00 +25°C° 0 mm 2 mps 686 mmHg 46%
    03:00 +24°C° 0 mm 2 mps 686 mmHg 48%
    04:00 +24°C° 0 mm 2 mps 686 mmHg 49%
    05:00 +23°C° 0 mm 2 mps 686 mmHg 50%
    06:00 +25°C° 0 mm 2 mps 687 mmHg 43%
    07:00 +26°C° 0 mm 3 mps 687 mmHg 37%
    08:00 +28°C° 0 mm 3 mps 688 mmHg 31%
    09:00 +29°C° 0 mm 3 mps 688 mmHg 27%
    10:00 +32°C° 0 mm 4 mps 688 mmHg 23%
    11:00 +34°C° 0 mm 4 mps 688 mmHg 20%
    12:00 +34°C° 0 mm 5 mps 688 mmHg 19%
    13:00 +35°C° 0 mm 5 mps 688 mmHg 18%
    14:00 +36°C° 0 mm 6 mps 688 mmHg 18%
    15:00 +35°C° 0 mm 6 mps 687 mmHg 19%
    16:00 +35°C° 0 mm 6 mps 687 mmHg 21%
    17:00 +34°C° 0 mm 6 mps 687 mmHg 23%
    18:00 +33°C° 0 mm 6 mps 687 mmHg 27%
    19:00 +30°C° 0 mm 5 mps 687 mmHg 30%
    20:00 +29°C° 0 mm 4 mps 687 mmHg 34%
    21:00 +28°C° 0 mm 3 mps 687 mmHg 37%
    22:00 +27°C° 0 mm 3 mps 687 mmHg 41%
    23:00 +26°C° 0 mm 2 mps 687 mmHg 44%

    Day after tomorrow, 19 July, Thursday

    Time Temperature Precipitation Wind Pressure Humidity
    00:00 +26°C° 0 mm 2 mps 687 mmHg 46%
    01:00 +25°C° 0 mm 2 mps 687 mmHg 49%
    02:00 +25°C° 0 mm 2 mps 686 mmHg 52%
    03:00 +24°C° 0 mm 2 mps 686 mmHg 54%
    04:00 +24°C° 0 mm 2 mps 686 mmHg 56%
    05:00 +23°C° 0 mm 2 mps 686 mmHg 58%
    06:00 +25°C° 0 mm 2 mps 687 mmHg 51%
    07:00 +26°C° 0 mm 3 mps 687 mmHg 45%
    08:00 +28°C° 0 mm 3 mps 688 mmHg 39%
    09:00 +29°C° 0 mm 3 mps 688 mmHg 34%
    10:00 +32°C° 0 mm 4 mps 688 mmHg 28%
    11:00 +34°C° 0 mm 4 mps 688 mmHg 23%
    12:00 +34°C° 0 mm 4 mps 688 mmHg 22%
    13:00 +35°C° 0 mm 5 mps 688 mmHg 21%
    14:00 +36°C° 0 mm 5 mps 688 mmHg 20%
    15:00 +35°C° 0 mm 6 mps 688 mmHg 23%
    16:00 +35°C° 0 mm 6 mps 687 mmHg 26%
    17:00 +34°C° 0 mm 6 mps 687 mmHg 29%
    18:00 +32°C° 0 mm 5 mps 687 mmHg 34%
    19:00 +30°C° 0 mm 5 mps 687 mmHg 38%
    20:00 +28°C° 0 mm 4 mps 688 mmHg 43%
    21:00 +28°C° 0 mm 4 mps 688 mmHg 45%
    22:00 +27°C° 0 mm 3 mps 688 mmHg 48%
    23:00 +26°C° 0 mm 3 mps 687 mmHg 50%

    20 July, Friday

    Time Temperature Precipitation Wind Pressure Humidity
    00:00 +25°C° 0 mm 3 mps 687 mmHg 53%
    01:00 +25°C° 0 mm 3 mps 687 mmHg 55%
    02:00 +24°C° 0 mm 3 mps 687 mmHg 57%
    03:00 +22°C° 0 mm 3 mps 687 mmHg 59%
    04:00 +22°C° 0 mm 3 mps 687 mmHg 61%
    05:00 +21°C° 0 mm 3 mps 687 mmHg 64%
    06:00 +24°C° 0 mm 3 mps 687 mmHg 58%
    07:00 +25°C° 0 mm 3 mps 688 mmHg 52%
    08:00 +26°C° 0 mm 4 mps 688 mmHg 46%
    09:00 +28°C° 0 mm 4 mps 688 mmHg 40%
    10:00 +29°C° 0 mm 5 mps 688 mmHg 33%
    11:00 +32°C° 0 mm 5 mps 689 mmHg 27%
    12:00 +33°C° 0 mm 6 mps 688 mmHg 26%
    13:00 +34°C° 0 mm 6 mps 688 mmHg 24%
    14:00 +35°C° 0 mm 6 mps 688 mmHg 23%
    15:00 +34°C° 0 mm 6 mps 688 mmHg 25%
    16:00 +33°C° 0 mm 7 mps 688 mmHg 28%
    17:00 +32°C° 0 mm 7 mps 687 mmHg 31%
    18:00 +30°C° 0 mm 6 mps 687 mmHg 35%
    19:00 +28°C° 0 mm 5 mps 688 mmHg 39%
    20:00 +27°C° 0 mm 4 mps 688 mmHg 43%
    21:00 +26°C° 0 mm 4 mps 688 mmHg 46%
    22:00 +26°C° 0 mm 4 mps 687 mmHg 49%
    23:00 +25°C° 0 mm 4 mps 687 mmHg 52%

    21 July, Saturday

    Time Temperature Precipitation Wind Pressure Humidity
    00:00 +23°C° 0 mm 4 mps 687 mmHg 56%
    01:00 +23°C° 0 mm 4 mps 687 mmHg 59%
    02:00 +22°C° 0 mm 4 mps 687 mmHg 63%
    03:00 +22°C° 0 mm 4 mps 687 mmHg 66%
    04:00 +21°C° 0 mm 4 mps 687 mmHg 69%
    05:00 +21°C° 0 mm 4 mps 687 mmHg 72%
    06:00 +22°C° 0 mm 4 mps 687 mmHg 66%
    07:00 +23°C° 0 mm 5 mps 687 mmHg 60%
    08:00 +25°C° 0 mm 5 mps 688 mmHg 54%
    09:00 +27°C° 0 mm 5 mps 688 mmHg 47%
    10:00 +28°C° 0 mm 6 mps 688 mmHg 41%
    11:00 +30°C° 0 mm 6 mps 688 mmHg 34%
    12:00 +30°C° 0 mm 7 mps 688 mmHg 33%
    13:00 +32°C° 0 mm 7 mps 688 mmHg 31%
    14:00 +33°C° 0 mm 8 mps 687 mmHg 30%
    15:00 +32°C° 0 mm 8 mps 687 mmHg 32%
    16:00 +31°C° 0 mm 8 mps 687 mmHg 34%
    17:00 +29°C° 0 mm 7 mps 687 mmHg 37%
    18:00 +28°C° 0 mm 7 mps 687 mmHg 42%
    19:00 +27°C° 0 mm 6 mps 687 mmHg 47%
    20:00 +26°C° 0 mm 5 mps 687 mmHg 52%
    21:00 +25°C° 0 mm 5 mps 687 mmHg 55%
    22:00 +25°C° 0 mm 4 mps 687 mmHg 58%
    23:00 +23°C° 0 mm 4 mps 687 mmHg 61%

    22 July, Sunday

    Time Temperature Precipitation Wind Pressure Humidity
    00:00 +23°C° 0 mm 4 mps 686 mmHg 63%
    01:00 +23°C° 0 mm 4 mps 686 mmHg 65%
    02:00 +22°C° 0 mm 4 mps 686 mmHg 67%
    03:00 +22°C° 0 mm 3 mps 686 mmHg 69%
    04:00 +22°C° 0 mm 3 mps 686 mmHg 71%
    05:00 +21°C° 0 mm 3 mps 686 mmHg 73%
    06:00 +22°C° 0 mm 4 mps 686 mmHg 69%
    07:00 +23°C° 0 mm 4 mps 686 mmHg 64%
    08:00 +25°C° 0 mm 5 mps 687 mmHg 60%
    09:00 +27°C° 0 mm 5 mps 687 mmHg 55%
    10:00 +28°C° 0 mm 5 mps 687 mmHg 50%
    11:00 +29°C° 0 mm 6 mps 687 mmHg 45%
    12:00 +30°C° 0 mm 6 mps 687 mmHg 44%
    13:00 +32°C° 0 mm 6 mps 686 mmHg 42%
    14:00 +32°C° 0 mm 6 mps 686 mmHg 40%
    15:00 +32°C° 0 mm 6 mps 686 mmHg 42%
    16:00 +32°C° 0 mm 6 mps 686 mmHg 43%
    17:00 +30°C° 0 mm 6 mps 686 mmHg 45%
    18:00 +29°C° 0 mm 6 mps 686 mmHg 48%
    19:00 +28°C° 0 mm 5 mps 686 mmHg 52%
    20:00 +27°C° 0 mm 4 mps 686 mmHg 55%
    21:00 +27°C° 0 mm 4 mps 686 mmHg 57%
    22:00 +26°C° 0 mm 3 mps 686 mmHg 59%
    23:00 +25°C° 0 mm 3 mps 685 mmHg 60%
    Show more